 TIAAreal,207.3227,9/29/2010
TIAAreal,207.0741,9/28/2010
TIAAreal,206.7649,9/27/2010
TIAAreal,206.7418,9/24/2010
TIAAreal,206.4925,9/23/2010
TIAAreal,206.6594,9/22/2010
TIAAreal,206.5998,9/21/2010
TIAAreal,206.8577,9/20/2010
TIAAreal,206.7743,9/17/2010
TIAAreal,206.472,9/16/2010
TIAAreal,206.4022,9/15/2010
TIAAreal,206.2344,9/14/2010
TIAAreal,206.1837,9/13/2010
TIAAreal,206.0432,9/10/2010
TIAAreal,206.0017,9/9/2010
TIAAreal,206.0124,9/8/2010
TIAAreal,205.3543,9/7/2010
TIAAreal,204.8088,9/3/2010
TIAAreal,204.4581,9/2/2010
TIAAreal,204.4106,9/1/2010
TIAAreal,204.2895,8/31/2010
TIAAreal,204.2272,8/30/2010
TIAAreal,204.1576,8/27/2010
TIAAreal,203.9073,8/26/2010
TIAAreal,203.7242,8/25/2010
TIAAreal,203.6713,8/24/2010
TIAAreal,203.7148,8/23/2010
TIAAreal,203.6267,8/20/2010
TIAAreal,203.6921,8/19/2010
TIAAreal,203.6581,8/18/2010
TIAAreal,202.8993,8/17/2010
TIAAreal,202.8187,8/16/2010
TIAAreal,202.6104,8/13/2010
TIAAreal,202.6288,8/12/2010
TIAAreal,202.6503,8/11/2010
TIAAreal,202.583,8/10/2010
TIAAreal,202.3762,8/9/2010
TIAAreal,202.1793,8/6/2010
TIAAreal,201.8894,8/5/2010
TIAAreal,201.6525,8/4/2010
TIAAreal,201.4261,8/3/2010
TIAAreal,201.3828,8/2/2010
TIAAreal,201.2073,7/31/2010
TIAAreal,201.1871,7/30/2010
TIAAreal,201.1326,7/29/2010
TIAAreal,201.2415,7/28/2010
TIAAreal,200.9112,7/27/2010
TIAAreal,200.7492,7/26/2010
TIAAreal,200.6147,7/23/2010
TIAAreal,200.5471,7/22/2010
TIAAreal,200.4785,7/21/2010
TIAAreal,200.5321,7/20/2010
TIAAreal,200.3806,7/19/2010
TIAAreal,200.298,7/16/2010
TIAAreal,200.1716,7/15/2010
TIAAreal,200.0784,7/14/2010
TIAAreal,199.8782,7/13/2010
TIAAreal,199.6727,7/12/2010
TIAAreal,199.6102,7/9/2010
TIAAreal,198.9696,7/8/2010
TIAAreal,198.9362,7/7/2010
TIAAreal,198.5243,7/6/2010
TIAAreal,198.3813,7/2/2010
TIAAreal,196.4383,7/1/2010
TIAAreal,198.1167,6/30/2010
TIAAreal,198.1165,6/29/2010
TIAAreal,197.5991,6/28/2010
TIAAreal,196.5479,6/25/2010
TIAAreal,194.8389,6/24/2010
TIAAreal,194.8022,6/23/2010
TIAAreal,194.233,6/22/2010
TIAAreal,194.2296,6/21/2010
TIAAreal,194.1389,6/18/2010
TIAAreal,194.0851,6/17/2010
TIAAreal,193.4362,6/16/2010
TIAAreal,193.4458,6/15/2010
TIAAreal,193.465,6/14/2010
TIAAreal,193.1081,6/11/2010
TIAAreal,193.1015,6/10/2010
TIAAreal,193.0198,6/9/2010
TIAAreal,192.553,6/8/2010
TIAAreal,192.4831,6/7/2010
TIAAreal,192.3863,6/4/2010
TIAAreal,192.4313,6/3/2010
TIAAreal,191.6341,6/2/2010
TIAAreal,191.3633,6/1/2010
TIAAreal,191.2986,5/31/2010
TIAAreal,191.2996,5/28/2010
TIAAreal,191.1656,5/27/2010
TIAAreal,191.1175,5/26/2010
TIAAreal,191.1594,5/25/2010
TIAAreal,191.0625,5/24/2010
TIAAreal,191.1983,5/21/2010
TIAAreal,191.0952,5/20/2010
TIAAreal,191.0899,5/19/2010
TIAAreal,191.0713,5/18/2010
TIAAreal,190.6311,5/17/2010
TIAAreal,190.5971,5/14/2010
TIAAreal,190.3898,5/13/2010
TIAAreal,190.5399,5/12/2010
TIAAreal,190.666,5/11/2010
TIAAreal,190.2266,5/10/2010
TIAAreal,190.054,5/7/2010
TIAAreal,190.0418,5/6/2010
TIAAreal,190.1168,5/5/2010
TIAAreal,189.9096,5/4/2010
TIAAreal,189.933,5/3/2010
TIAAreal,189.8878,4/30/2010
TIAAreal,189.8429,4/29/2010
TIAAreal,189.9122,4/28/2010
TIAAreal,190.0622,4/27/2010
TIAAreal,190.005,4/26/2010
TIAAreal,189.9825,4/23/2010
TIAAreal,189.9041,4/22/2010
TIAAreal,189.927,4/21/2010
TIAAreal,189.913,4/20/2010
TIAAreal,190.2136,4/19/2010
TIAAreal,190.0566,4/16/2010
TIAAreal,190.1021,4/15/2010
TIAAreal,190.0983,4/14/2010
TIAAreal,190.0267,4/13/2010
TIAAreal,189.9862,4/12/2010
TIAAreal,189.9426,4/9/2010
TIAAreal,189.8422,4/8/2010
TIAAreal,189.9981,4/7/2010
TIAAreal,190.0299,4/6/2010
TIAAreal,189.8997,4/5/2010
TIAAreal,189.7396,4/1/2010
TIAAreal,189.6978,3/31/2010
TIAAreal,189.7965,3/30/2010
TIAAreal,189.8214,3/29/2010
TIAAreal,189.6151,3/26/2010
TIAAreal,189.706,3/25/2010
TIAAreal,189.8161,3/24/2010
TIAAreal,190.0204,3/23/2010
TIAAreal,189.4533,3/22/2010
TIAAreal,189.3618,3/19/2010
TIAAreal,189.3947,3/18/2010
TIAAreal,189.4726,3/17/2010
TIAAreal,189.383,3/16/2010
TIAAreal,189.1661,3/15/2010
TIAAreal,188.9664,3/12/2010
TIAAreal,188.9428,3/11/2010
TIAAreal,189.3466,3/10/2010
TIAAreal,189.363,3/9/2010
TIAAreal,189.3568,3/8/2010
TIAAreal,189.1304,3/5/2010
TIAAreal,189.1063,3/4/2010
TIAAreal,189.2327,3/3/2010
TIAAreal,189.1467,3/2/2010
TIAAreal,189.3363,3/1/2010
TIAAreal,189.3848,2/28/2010
TIAAreal,189.3118,2/26/2010
TIAAreal,189.2587,2/25/2010
TIAAreal,189.2256,2/24/2010
TIAAreal,189.3273,2/23/2010
TIAAreal,189.6437,2/22/2010
TIAAreal,189.4989,2/19/2010
TIAAreal,189.5806,2/18/2010
TIAAreal,189.5718,2/17/2010
TIAAreal,190.0042,2/16/2010
TIAAreal,189.8524,2/12/2010
TIAAreal,189.7141,2/11/2010
TIAAreal,189.7425,2/10/2010
TIAAreal,189.8059,2/9/2010
TIAAreal,189.8819,2/8/2010
TIAAreal,189.5874,2/5/2010
TIAAreal,189.895,2/4/2010
TIAAreal,189.9122,2/3/2010
TIAAreal,189.8936,2/2/2010
TIAAreal,189.8341,2/1/2010
TIAAreal,189.8107,1/31/2010
TIAAreal,189.7817,1/29/2010
TIAAreal,189.8447,1/28/2010
TIAAreal,189.8401,1/27/2010
TIAAreal,190.7561,1/26/2010
TIAAreal,190.9539,1/25/2010
TIAAreal,191.6923,1/22/2010
TIAAreal,191.7527,1/21/2010
TIAAreal,191.7523,1/20/2010
TIAAreal,191.9915,1/19/2010
TIAAreal,191.9466,1/15/2010
TIAAreal,192.0251,1/14/2010
TIAAreal,192.0622,1/13/2010
TIAAreal,192.0321,1/12/2010
TIAAreal,192.1864,1/11/2010
TIAAreal,191.9954,1/8/2010
TIAAreal,193.3588,1/7/2010
TIAAreal,193.6482,1/6/2010
TIAAreal,193.6341,1/5/2010
TIAAreal,193.6159,1/4/2010
TIAAreal,193.4539,12/31/2009
TIAAreal,193.3758,12/30/2009
TIAAreal,193.3761,12/29/2009
TIAAreal,193.8491,12/28/2009
TIAAreal,193.8023,12/24/2009
TIAAreal,193.7607,12/23/2009
TIAAreal,193.649,12/22/2009
TIAAreal,193.9684,12/21/2009
TIAAreal,193.8563,12/18/2009
TIAAreal,193.9222,12/17/2009
TIAAreal,194.1862,12/16/2009
TIAAreal,194.1822,12/15/2009
TIAAreal,194.4328,12/14/2009
TIAAreal,194.8879,12/11/2009
TIAAreal,194.8906,12/10/2009
TIAAreal,195.2429,12/9/2009
TIAAreal,195.3102,12/8/2009
TIAAreal,195.5276,12/7/2009
TIAAreal,196.1633,12/4/2009
TIAAreal,196.3512,12/3/2009
TIAAreal,197.0611,12/2/2009
TIAAreal,197.0297,12/1/2009
TIAAreal,196.9546,11/30/2009
TIAAreal,196.85,11/27/2009
TIAAreal,196.8238,11/25/2009
TIAAreal,196.7762,11/24/2009
TIAAreal,196.9931,11/23/2009
TIAAreal,197.0941,11/20/2009
TIAAreal,197.287,11/19/2009
TIAAreal,197.2093,11/18/2009
TIAAreal,197.1639,11/17/2009
TIAAreal,197.5142,11/16/2009
TIAAreal,197.4084,11/13/2009
TIAAreal,197.6351,11/12/2009
TIAAreal,198.1207,11/11/2009
TIAAreal,198.0923,11/10/2009
TIAAreal,198.151,11/9/2009
TIAAreal,198.8403,11/6/2009
TIAAreal,198.9856,11/5/2009
TIAAreal,199.1032,11/4/2009
TIAAreal,199.4315,11/3/2009
TIAAreal,199.76,11/2/2009
TIAAreal,199.6654,10/31/2009
TIAAreal,199.649,10/30/2009
TIAAreal,199.6506,10/29/2009
TIAAreal,199.6094,10/28/2009
TIAAreal,199.4912,10/27/2009
TIAAreal,200.1327,10/26/2009
TIAAreal,200.0385,10/23/2009
TIAAreal,200.2278,10/22/2009
TIAAreal,200.2959,10/21/2009
TIAAreal,200.3776,10/20/2009
TIAAreal,201.7226,10/19/2009
TIAAreal,201.5612,10/16/2009
TIAAreal,201.5437,10/15/2009
TIAAreal,201.7337,10/14/2009
TIAAreal,201.7702,10/13/2009
TIAAreal,201.7107,10/12/2009
TIAAreal,201.6022,10/9/2009
TIAAreal,201.9356,10/8/2009
TIAAreal,202.3684,10/7/2009
TIAAreal,202.6297,10/6/2009
TIAAreal,203.4699,10/5/2009
TIAAreal,203.7828,10/2/2009
TIAAreal,203.7361,10/1/2009
TIAAreal,203.7481,9/30/2009
TIAAreal,203.7002,9/29/2009
TIAAreal,203.752,9/28/2009
TIAAreal,204.2431,9/25/2009
TIAAreal,204.5806,9/24/2009
TIAAreal,204.7516,9/23/2009
TIAAreal,204.7386,9/22/2009
TIAAreal,204.7235,9/21/2009
TIAAreal,204.7436,9/18/2009
TIAAreal,204.8998,9/17/2009
TIAAreal,204.9086,9/16/2009
TIAAreal,205.3581,9/15/2009
TIAAreal,205.9521,9/14/2009
TIAAreal,206.0148,9/11/2009
TIAAreal,206.785,9/10/2009
TIAAreal,207.5182,9/9/2009
TIAAreal,208.2696,9/8/2009
TIAAreal,208.79,9/4/2009
TIAAreal,208.9946,9/3/2009
TIAAreal,208.9433,9/2/2009
TIAAreal,209.7532,9/1/2009
TIAAreal,209.984,8/31/2009
TIAAreal,210.0038,8/28/2009
TIAAreal,210.0217,8/27/2009
TIAAreal,210.2402,8/26/2009
TIAAreal,210.3819,8/25/2009
TIAAreal,211.3103,8/24/2009
TIAAreal,211.4941,8/21/2009
TIAAreal,211.6006,8/20/2009
TIAAreal,211.8119,8/19/2009
TIAAreal,211.8901,8/18/2009
TIAAreal,211.9431,8/17/2009
TIAAreal,211.7496,8/14/2009
TIAAreal,211.9873,8/13/2009
TIAAreal,211.9316,8/12/2009
TIAAreal,212.2351,8/11/2009
TIAAreal,213.2362,8/10/2009
TIAAreal,213.1914,8/7/2009
TIAAreal,213.8785,8/6/2009
TIAAreal,215.1348,8/5/2009
TIAAreal,215.8231,8/4/2009
TIAAreal,215.7932,8/3/2009
TIAAreal,215.6258,7/31/2009
TIAAreal,215.5332,7/30/2009
TIAAreal,215.4788,7/29/2009
TIAAreal,215.7341,7/28/2009
TIAAreal,215.8244,7/27/2009
TIAAreal,215.7296,7/24/2009
TIAAreal,215.8733,7/23/2009
TIAAreal,216.0813,7/22/2009
TIAAreal,216.5299,7/21/2009
TIAAreal,216.4996,7/20/2009
TIAAreal,216.3513,7/17/2009
TIAAreal,216.5008,7/16/2009
TIAAreal,216.5323,7/15/2009
TIAAreal,217.0704,7/14/2009
TIAAreal,218.2297,7/13/2009
TIAAreal,218.282,7/10/2009
TIAAreal,218.3722,7/9/2009
TIAAreal,218.9838,7/8/2009
TIAAreal,219.5744,7/7/2009
TIAAreal,220.0462,7/6/2009
TIAAreal,220.6464,7/2/2009
TIAAreal,220.6573,7/1/2009
TIAAreal,220.5985,6/30/2009
TIAAreal,220.5124,6/29/2009
TIAAreal,220.825,6/26/2009
TIAAreal,222.6989,6/25/2009
TIAAreal,223.6703,6/24/2009
TIAAreal,223.8049,6/23/2009
TIAAreal,223.736,6/22/2009
TIAAreal,223.9554,6/19/2009
TIAAreal,223.888,6/18/2009
TIAAreal,223.906,6/17/2009
TIAAreal,224.1203,6/16/2009
TIAAreal,224.0975,6/15/2009
TIAAreal,224.3005,6/12/2009
TIAAreal,225.3269,6/11/2009
TIAAreal,225.2685,6/10/2009
TIAAreal,225.4965,6/9/2009
TIAAreal,226.2041,6/8/2009
TIAAreal,226.1631,6/5/2009
TIAAreal,226.9397,6/4/2009
TIAAreal,227.6553,6/3/2009
TIAAreal,228.7169,6/2/2009
TIAAreal,228.5802,6/1/2009
TIAAreal,228.5278,5/31/2009
TIAAreal,228.4692,5/29/2009
TIAAreal,228.3669,5/28/2009
TIAAreal,228.8583,5/27/2009
TIAAreal,229.7316,5/26/2009
TIAAreal,229.8065,5/22/2009
TIAAreal,230.2382,5/21/2009
TIAAreal,230.3411,5/20/2009
TIAAreal,230.3579,5/19/2009
TIAAreal,232.0359,5/18/2009
TIAAreal,232.4676,5/15/2009
TIAAreal,233.081,5/14/2009
TIAAreal,233.0542,5/13/2009
TIAAreal,233.2027,5/12/2009
TIAAreal,233.594,5/11/2009
TIAAreal,233.5257,5/8/2009
TIAAreal,234.6119,5/7/2009
TIAAreal,235.1184,5/6/2009
TIAAreal,235.1058,5/5/2009
TIAAreal,235.5626,5/4/2009
TIAAreal,235.8748,5/1/2009
TIAAreal,235.8394,4/30/2009
TIAAreal,236.4641,4/29/2009
TIAAreal,236.7131,4/28/2009
TIAAreal,237.466,4/27/2009
TIAAreal,238.137,4/24/2009
TIAAreal,238.7366,4/23/2009
TIAAreal,239.1654,4/22/2009
TIAAreal,239.3102,4/21/2009
TIAAreal,239.5368,4/20/2009
TIAAreal,239.6849,4/17/2009
TIAAreal,240.0345,4/16/2009
TIAAreal,240.2125,4/15/2009
TIAAreal,240.0776,4/14/2009
TIAAreal,240.8184,4/13/2009
TIAAreal,245.144,4/9/2009
TIAAreal,245.1341,4/8/2009
TIAAreal,245.1746,4/7/2009
TIAAreal,245.1954,4/6/2009
TIAAreal,245.2122,4/3/2009
TIAAreal,245.2739,4/2/2009
TIAAreal,245.1275,4/1/2009
TIAAreal,245.0085,3/31/2009
TIAAreal,252.6745,3/30/2009
TIAAreal,252.4599,3/27/2009
TIAAreal,256.3252,3/26/2009
TIAAreal,257.3975,3/25/2009
TIAAreal,257.5715,3/24/2009
TIAAreal,257.5423,3/23/2009
TIAAreal,257.548,3/20/2009
TIAAreal,257.3844,3/19/2009
TIAAreal,255.5506,3/18/2009
TIAAreal,255.4863,3/17/2009
TIAAreal,256.2164,3/16/2009
TIAAreal,255.5253,3/13/2009
TIAAreal,255.6247,3/12/2009
TIAAreal,255.9269,3/11/2009
TIAAreal,256.215,3/10/2009
TIAAreal,256.1495,3/9/2009
TIAAreal,256.1405,3/6/2009
TIAAreal,256.0559,3/5/2009
TIAAreal,256.0678,3/4/2009
TIAAreal,256.0329,3/3/2009
TIAAreal,256.0078,3/2/2009
TIAAreal,256.005,2/28/2009
TIAAreal,256.0096,2/27/2009
TIAAreal,256.9924,2/26/2009
TIAAreal,257.8863,2/25/2009
TIAAreal,258.1424,2/24/2009
TIAAreal,258.2855,2/23/2009
TIAAreal,258.0938,2/20/2009
TIAAreal,258.4904,2/19/2009
TIAAreal,258.6698,2/18/2009
TIAAreal,258.7057,2/17/2009
TIAAreal,258.7187,2/13/2009
TIAAreal,259.021,2/12/2009
TIAAreal,259.0996,2/11/2009
TIAAreal,258.7391,2/10/2009
TIAAreal,259.2059,2/9/2009
TIAAreal,259.0532,2/6/2009
TIAAreal,259.3429,2/5/2009
TIAAreal,259.3083,2/4/2009
TIAAreal,259.2873,2/3/2009
TIAAreal,259.1575,2/2/2009
TIAAreal,259.1052,1/31/2009
TIAAreal,259.0987,1/30/2009
TIAAreal,261.8676,1/29/2009
TIAAreal,263.0528,1/28/2009
TIAAreal,264.4579,1/27/2009
TIAAreal,265.5256,1/26/2009
TIAAreal,265.3807,1/23/2009
TIAAreal,265.8469,1/22/2009
TIAAreal,265.7737,1/21/2009
TIAAreal,265.9623,1/20/2009
TIAAreal,266.3362,1/16/2009
TIAAreal,266.4142,1/15/2009
TIAAreal,266.9697,1/14/2009
TIAAreal,267.2085,1/13/2009
TIAAreal,266.6872,1/12/2009
TIAAreal,267.5866,1/9/2009
TIAAreal,267.6443,1/8/2009
TIAAreal,267.5733,1/7/2009
TIAAreal,267.3767,1/6/2009
TIAAreal,267.4379,1/5/2009
TIAAreal,267.4483,1/2/2009
TIAAreal,267.348,12/31/2008
TIAAreal,268.7677,12/30/2008
TIAAreal,269.9716,12/29/2008
TIAAreal,269.8252,12/26/2008
TIAAreal,269.7324,12/24/2008
TIAAreal,272.1345,12/23/2008
TIAAreal,274.8309,12/22/2008
TIAAreal,277.6679,12/19/2008
TIAAreal,280.5373,12/18/2008
TIAAreal,281.7638,12/17/2008
TIAAreal,281.9876,12/16/2008
TIAAreal,282.9677,12/15/2008
TIAAreal,282.9059,12/12/2008
TIAAreal,287.9138,12/11/2008
TIAAreal,287.9562,12/10/2008
TIAAreal,288.0111,12/9/2008
TIAAreal,287.9795,12/8/2008
TIAAreal,287.7706,12/5/2008
TIAAreal,287.7624,12/4/2008
TIAAreal,287.7299,12/3/2008
TIAAreal,287.7158,12/2/2008
TIAAreal,287.595,12/1/2008
TIAAreal,287.6506,11/30/2008
TIAAreal,287.5735,11/28/2008
TIAAreal,291.2346,11/26/2008
TIAAreal,293.0373,11/25/2008
TIAAreal,293.8141,11/24/2008
TIAAreal,293.7195,11/21/2008
TIAAreal,294.6962,11/20/2008
TIAAreal,295.6062,11/19/2008
TIAAreal,296.4891,11/18/2008
TIAAreal,297.2035,11/17/2008
TIAAreal,297.5717,11/14/2008
TIAAreal,297.4897,11/13/2008
TIAAreal,299.5723,11/12/2008
TIAAreal,300.7924,11/11/2008
TIAAreal,300.9075,11/10/2008
TIAAreal,300.8222,11/7/2008
TIAAreal,300.8135,11/6/2008
TIAAreal,300.9225,11/5/2008
TIAAreal,301.073,11/4/2008
TIAAreal,300.9096,11/3/2008
TIAAreal,300.801,10/31/2008
TIAAreal,303.1462,10/30/2008
TIAAreal,304.1448,10/29/2008
TIAAreal,304.7136,10/28/2008
TIAAreal,304.6511,10/27/2008
TIAAreal,304.866,10/24/2008
TIAAreal,305.4687,10/23/2008
TIAAreal,305.6846,10/22/2008
TIAAreal,306.1965,10/21/2008
TIAAreal,307.1627,10/20/2008
TIAAreal,307.541,10/17/2008
TIAAreal,307.918,10/16/2008
TIAAreal,308.0387,10/15/2008
TIAAreal,308.0634,10/14/2008
TIAAreal,307.9889,10/13/2008
TIAAreal,307.9366,10/10/2008
TIAAreal,307.9544,10/9/2008
TIAAreal,307.9934,10/8/2008
TIAAreal,308.0224,10/7/2008
TIAAreal,307.941,10/6/2008
TIAAreal,308.012,10/3/2008
TIAAreal,307.8654,10/2/2008
TIAAreal,307.9218,10/1/2008
TIAAreal,307.9218,9/30/2008
TIAAreal,308.5822,9/29/2008
TIAAreal,308.9859,9/26/2008
TIAAreal,309.3513,9/25/2008
TIAAreal,310.9111,9/24/2008
TIAAreal,311.3186,9/23/2008
TIAAreal,311.4014,9/22/2008
TIAAreal,311.276,9/19/2008
TIAAreal,311.6147,9/18/2008
TIAAreal,311.4836,9/17/2008
TIAAreal,311.3898,9/16/2008
TIAAreal,311.6768,9/15/2008
TIAAreal,311.5644,9/12/2008
TIAAreal,311.5783,9/11/2008
TIAAreal,311.688,9/10/2008
TIAAreal,311.6706,9/9/2008
TIAAreal,311.6729,9/8/2008
TIAAreal,311.6306,9/5/2008
TIAAreal,311.6448,9/4/2008
TIAAreal,312.0002,9/3/2008
TIAAreal,312.0807,9/2/2008
TIAAreal,312.1235,8/31/2008
TIAAreal,312.0787,8/29/2008
TIAAreal,311.851,8/28/2008
TIAAreal,312.4754,8/27/2008
TIAAreal,312.7074,8/26/2008
TIAAreal,312.9099,8/25/2008
TIAAreal,312.8319,8/22/2008
TIAAreal,312.8526,8/21/2008
TIAAreal,313.0455,8/20/2008
TIAAreal,313.3773,8/19/2008
TIAAreal,313.3548,8/18/2008
TIAAreal,313.2667,8/15/2008
TIAAreal,313.3897,8/14/2008
TIAAreal,314.0223,8/13/2008
TIAAreal,314.1194,8/12/2008
TIAAreal,314.2178,8/11/2008
TIAAreal,314.136,8/8/2008
TIAAreal,314.2724,8/7/2008
TIAAreal,314.4187,8/6/2008
TIAAreal,314.4028,8/5/2008
TIAAreal,314.4308,8/4/2008
TIAAreal,314.3331,8/1/2008
TIAAreal,314.3221,7/31/2008
TIAAreal,314.5284,7/30/2008
TIAAreal,314.545,7/29/2008
TIAAreal,314.6383,7/28/2008
TIAAreal,314.5182,7/25/2008
TIAAreal,314.5587,7/24/2008
TIAAreal,314.6175,7/23/2008
TIAAreal,314.6411,7/22/2008
TIAAreal,314.678,7/21/2008
TIAAreal,314.5513,7/18/2008
TIAAreal,314.6217,7/17/2008
TIAAreal,314.7078,7/16/2008
TIAAreal,314.6967,7/15/2008
TIAAreal,314.6543,7/14/2008
TIAAreal,314.5403,7/11/2008
TIAAreal,314.4926,7/10/2008
TIAAreal,314.4631,7/9/2008
TIAAreal,314.4221,7/8/2008
TIAAreal,314.5345,7/7/2008
TIAAreal,314.4982,7/3/2008
TIAAreal,314.5326,7/2/2008
TIAAreal,314.4614,7/1/2008
TIAAreal,314.4237,6/30/2008
TIAAreal,314.4764,6/27/2008
TIAAreal,314.581,6/26/2008
TIAAreal,314.8405,6/25/2008
TIAAreal,314.9775,6/24/2008
TIAAreal,314.9201,6/23/2008
TIAAreal,314.6058,6/20/2008
TIAAreal,314.5504,6/19/2008
TIAAreal,314.4446,6/18/2008
TIAAreal,314.6477,6/17/2008
TIAAreal,314.8523,6/16/2008
TIAAreal,314.5008,6/13/2008
TIAAreal,314.0053,6/12/2008
TIAAreal,313.9682,6/11/2008
TIAAreal,314.0365,6/10/2008
TIAAreal,314.0935,6/9/2008
TIAAreal,314.201,6/6/2008
TIAAreal,314.4897,6/5/2008
TIAAreal,314.2043,6/4/2008
TIAAreal,314.1614,6/3/2008
TIAAreal,314.0995,6/2/2008
TIAAreal,314.2199,5/31/2008
TIAAreal,314.1797,5/30/2008
TIAAreal,313.8859,5/29/2008
TIAAreal,314.1167,5/28/2008
TIAAreal,314.0895,5/27/2008
TIAAreal,313.9252,5/23/2008
TIAAreal,313.9293,5/22/2008
TIAAreal,313.9519,5/21/2008
TIAAreal,314.1507,5/20/2008
TIAAreal,314.168,5/19/2008
TIAAreal,314.0521,5/16/2008
TIAAreal,314.0091,5/15/2008
TIAAreal,314.062,5/14/2008
TIAAreal,313.9695,5/13/2008
TIAAreal,313.8181,5/12/2008
TIAAreal,313.4464,5/9/2008
TIAAreal,313.5346,5/8/2008
TIAAreal,313.5078,5/7/2008
TIAAreal,313.79,5/6/2008
TIAAreal,313.6829,5/5/2008
TIAAreal,313.5833,5/2/2008
TIAAreal,313.6917,5/1/2008
TIAAreal,313.4973,4/30/2008
TIAAreal,313.8656,4/29/2008
TIAAreal,314.3568,4/28/2008
TIAAreal,314.8552,4/25/2008
TIAAreal,314.8505,4/24/2008
TIAAreal,314.7313,4/23/2008
TIAAreal,314.7607,4/22/2008
TIAAreal,314.8044,4/21/2008
TIAAreal,314.8333,4/18/2008
TIAAreal,314.8729,4/17/2008
TIAAreal,314.8367,4/16/2008
TIAAreal,314.4292,4/15/2008
TIAAreal,314.1646,4/14/2008
TIAAreal,314.0948,4/11/2008
TIAAreal,313.9259,4/10/2008
TIAAreal,313.9067,4/9/2008
TIAAreal,314.2693,4/8/2008
TIAAreal,314.4147,4/7/2008
TIAAreal,314.3288,4/4/2008
TIAAreal,314.3568,4/3/2008
TIAAreal,314.1254,4/2/2008
TIAAreal,313.9445,4/1/2008
TIAAreal,313.5776,3/31/2008
TIAAreal,313.6188,3/28/2008
TIAAreal,314.0194,3/27/2008
TIAAreal,314.1407,3/26/2008
TIAAreal,314.3403,3/25/2008
TIAAreal,314.2044,3/24/2008
TIAAreal,314.0096,3/20/2008
TIAAreal,313.7382,3/19/2008
TIAAreal,313.912,3/18/2008
TIAAreal,313.4063,3/17/2008
TIAAreal,313.3045,3/14/2008
TIAAreal,313.4032,3/13/2008
TIAAreal,313.2511,3/12/2008
TIAAreal,313.2825,3/11/2008
TIAAreal,312.846,3/10/2008
TIAAreal,312.859,3/7/2008
TIAAreal,312.7186,3/6/2008
TIAAreal,312.9351,3/5/2008
TIAAreal,312.8714,3/4/2008
TIAAreal,312.8742,3/3/2008
TIAAreal,312.7169,2/29/2008
TIAAreal,313.2568,2/28/2008
TIAAreal,313.5414,2/27/2008
TIAAreal,313.6023,2/26/2008
TIAAreal,313.5617,2/25/2008
TIAAreal,313.2405,2/22/2008
TIAAreal,313.0025,2/21/2008
TIAAreal,313.0946,2/20/2008
TIAAreal,313.0209,2/19/2008
TIAAreal,313.0635,2/15/2008
TIAAreal,312.9631,2/14/2008
TIAAreal,312.9187,2/13/2008
TIAAreal,312.7226,2/12/2008
TIAAreal,312.4762,2/11/2008
TIAAreal,312.4359,2/8/2008
TIAAreal,312.5233,2/7/2008
TIAAreal,312.4591,2/6/2008
TIAAreal,312.453,2/5/2008
TIAAreal,312.7971,2/4/2008
TIAAreal,312.8051,2/1/2008
TIAAreal,312.5108,1/31/2008
TIAAreal,311.5861,1/30/2008
TIAAreal,311.701,1/29/2008
TIAAreal,311.7511,1/28/2008
TIAAreal,311.7921,1/25/2008
TIAAreal,311.832,1/24/2008
TIAAreal,312.001,1/23/2008
TIAAreal,311.3917,1/22/2008
TIAAreal,310.9726,1/18/2008
TIAAreal,311.0702,1/17/2008
TIAAreal,311.1808,1/16/2008
TIAAreal,311.0594,1/15/2008
TIAAreal,311.2095,1/14/2008
TIAAreal,311.0987,1/11/2008
TIAAreal,311.0748,1/10/2008
TIAAreal,310.954,1/9/2008
TIAAreal,310.8478,1/8/2008
TIAAreal,311.0796,1/7/2008
TIAAreal,310.9149,1/4/2008
TIAAreal,311.136,1/3/2008
TIAAreal,311.3749,1/2/2008
TIAAreal,311.4142,12/31/2007
TIAAreal,311.2831,12/28/2007
TIAAreal,309.7304,12/27/2007
TIAAreal,309.8254,12/26/2007
TIAAreal,309.8695,12/24/2007
TIAAreal,309.4906,12/21/2007
TIAAreal,309.2915,12/20/2007
TIAAreal,308.6071,12/19/2007
TIAAreal,308.5123,12/18/2007
TIAAreal,307.8692,12/17/2007
TIAAreal,308.0098,12/14/2007
TIAAreal,308.1402,12/13/2007
TIAAreal,308.214,12/12/2007
TIAAreal,308.1697,12/11/2007
TIAAreal,308.547,12/10/2007
TIAAreal,308.1288,12/7/2007
TIAAreal,308.1142,12/6/2007
TIAAreal,307.8397,12/5/2007
TIAAreal,307.6327,12/4/2007
TIAAreal,307.8054,12/3/2007
TIAAreal,307.7561,11/30/2007
TIAAreal,307.6092,11/29/2007
TIAAreal,307.6274,11/28/2007
TIAAreal,307.4957,11/27/2007
TIAAreal,307.3525,11/26/2007
TIAAreal,307.9626,11/23/2007
TIAAreal,307.7393,11/21/2007
TIAAreal,307.7988,11/20/2007
TIAAreal,307.7781,11/19/2007
TIAAreal,307.8308,11/16/2007
TIAAreal,307.887,11/15/2007
TIAAreal,307.9712,11/14/2007
TIAAreal,307.9663,11/13/2007
TIAAreal,307.2312,11/12/2007
TIAAreal,307.2128,11/9/2007
TIAAreal,307.0847,11/8/2007
TIAAreal,306.5076,11/7/2007
TIAAreal,306.6736,11/6/2007
TIAAreal,306.5312,11/5/2007
TIAAreal,306.5176,11/2/2007
TIAAreal,306.6368,11/1/2007
TIAAreal,306.946,10/31/2007
TIAAreal,307.1662,10/30/2007
TIAAreal,306.7615,10/29/2007
TIAAreal,307.0455,10/26/2007
TIAAreal,306.448,10/25/2007
TIAAreal,306.3179,10/24/2007
TIAAreal,306.2884,10/23/2007
TIAAreal,306.0937,10/22/2007
TIAAreal,305.9799,10/19/2007
TIAAreal,306.2709,10/18/2007
TIAAreal,306.1978,10/17/2007
TIAAreal,306.1138,10/16/2007
TIAAreal,306.2432,10/15/2007
TIAAreal,306.385,10/12/2007
TIAAreal,305.8024,10/11/2007
TIAAreal,305.8105,10/10/2007
TIAAreal,305.7305,10/9/2007
TIAAreal,305.5709,10/8/2007
TIAAreal,305.6257,10/5/2007
TIAAreal,305.3703,10/4/2007
TIAAreal,305.2674,10/3/2007
TIAAreal,305.2722,10/2/2007
TIAAreal,305.1101,10/1/2007
TIAAreal,304.8586,9/30/2007
TIAAreal,304.8166,9/28/2007
TIAAreal,304.4496,9/27/2007
TIAAreal,304.1977,9/26/2007
TIAAreal,304.0243,9/25/2007
TIAAreal,304.1619,9/24/2007
TIAAreal,303.8961,9/21/2007
TIAAreal,303.8596,9/20/2007
TIAAreal,303.8318,9/19/2007
TIAAreal,303.5795,9/18/2007
TIAAreal,303.1927,9/17/2007
TIAAreal,303.1948,9/14/2007
TIAAreal,303.1506,9/13/2007
TIAAreal,303.0062,9/12/2007
TIAAreal,302.9986,9/11/2007
TIAAreal,302.8412,9/10/2007
TIAAreal,302.6323,9/7/2007
TIAAreal,302.7462,9/6/2007
TIAAreal,302.6403,9/5/2007
TIAAreal,302.7821,9/4/2007
TIAAreal,302.5672,8/31/2007
TIAAreal,302.351,8/30/2007
TIAAreal,302.1213,8/29/2007
TIAAreal,301.8609,8/28/2007
TIAAreal,302.0981,8/27/2007
TIAAreal,301.4751,8/24/2007
TIAAreal,301.4287,8/23/2007
TIAAreal,300.9901,8/22/2007
TIAAreal,300.8781,8/21/2007
TIAAreal,300.5974,8/20/2007
TIAAreal,300.3615,8/17/2007
TIAAreal,299.8547,8/16/2007
TIAAreal,299.5932,8/15/2007
TIAAreal,299.6561,8/14/2007
TIAAreal,299.914,8/13/2007
TIAAreal,299.9041,8/10/2007
TIAAreal,300.187,8/9/2007
TIAAreal,299.2546,8/8/2007
TIAAreal,298.6347,8/7/2007
TIAAreal,298.5079,8/6/2007
TIAAreal,298.0971,8/3/2007
TIAAreal,298.2629,8/2/2007
TIAAreal,298.1339,8/1/2007
TIAAreal,298.0254,7/31/2007
TIAAreal,296.9055,7/30/2007
TIAAreal,296.639,7/27/2007
TIAAreal,296.4754,7/26/2007
TIAAreal,296.627,7/25/2007
TIAAreal,296.7063,7/24/2007
TIAAreal,296.7174,7/23/2007
TIAAreal,296.7425,7/20/2007
TIAAreal,296.8718,7/19/2007
TIAAreal,296.76,7/18/2007
TIAAreal,296.2582,7/17/2007
TIAAreal,296.2665,7/16/2007
TIAAreal,296.2233,7/13/2007
TIAAreal,295.5034,7/12/2007
TIAAreal,295.3235,7/11/2007
TIAAreal,295.1996,7/10/2007
TIAAreal,295.3626,7/9/2007
TIAAreal,295.2898,7/6/2007
TIAAreal,295.2449,7/5/2007
TIAAreal,295.0401,7/3/2007
TIAAreal,294.4692,7/2/2007
TIAAreal,294.0996,6/30/2007